User: anonymous   Login
Location: Unspecified
(0.0000°N, 0.0000°E)
Time: 11:30:59
(UTC+00:00)
Language:

Snapshot - Orbit

View from above orbital plane
View from above orbital plane
View from above satellite
View from above satellite

Ground track
Ground track

The orbit data is extracted from the following two-line orbital elements,

1  1314U 65027A   16148.95457175 -.00000005 +00000-0 -47512-4 0  9992
2  1314 090.3064 274.0087 0031449 142.1306 338.5032 12.91746321156922
Epoch (UTC): 27 May 2016 22:54:34
Eccentricity: 0.0031449
inclination: 90.3064°
perigee height: 1270 km
apogee height: 1319 km
right ascension of ascending node: 274.0087°
argument of perigee: 142.1306°
revolutions per day: 12.91746321
mean anomaly at epoch: 338.5032°
orbit number at epoch: 15692

The dashed part of the orbit path shows where the satellite is in the earth's shadow,  

DLR